Home   Weather   Kyiv   Past weeks

Flag for Ukraine Past Weather in Kyiv, Ukraine — Yesterday and Last 2 Weeks

Now
45 °F

Broken clouds.


Feels Like: 37 °F
Forecast: 33 / 60 °F
Wind: 20 mph from West

Location: Kyiv

Current Time: Apr 24, 2017 at 2:47:32 pm

Latest Report: Apr 24, 2017 at 2:00 pm


Visibility: N/A

Pressure: 29.92 "Hg

Humidity: 53%

Dew Point: 28 °F

Location of KyivLocation

Past Weather in Kyiv — Graph

°F

Kyiv Temperature Yesterday

Maximum temperature yesterday: 52 °F (at 2:30 pm)
Minimum temperature yesterday: 36 °F (at 5:30 am)
Average temperature yesterday: 44 °F

High & Low Weather Summary for the Past Weeks

 TemperatureHumidityPressure
High66 °F (Apr 11, 2:00 pm)93% (Apr 10, 3:30 am)30.27 "Hg (Apr 10, 3:30 am)
Low30 °F (Apr 21, 5:00 am)25% (Apr 21, 4:00 pm)29.62 "Hg (Apr 13, 6:00 pm)
Average45 °F57%29.92 "Hg
* Reported Apr 9 1:00 pm — Apr 24 1:30 pm, Kyiv, Weather by CustomWeather, © 2017

Note: Actual official high and low records may vary slightly from our data, if they occured in-between our weather recording intervals... More about our weather records

Advertising

Kyiv Weather History for the Previous 24 Hours

Scroll right to see more
 ConditionsComfort  
Time TempWeatherWind HumidityBarometerVisibility
1:30 pm
Mon, Apr 24
50 °FBroken clouds.10 mph37%29.92 "HgN/A
1:00 pm50 °FBroken clouds.6 mph37%29.92 "HgN/A
12:30 pm50 °FPartly sunny.10 mph40%29.92 "HgN/A
12:00 pm48 °FBroken clouds.8 mph43%29.92 "HgN/A
11:30 am46 °FPartly sunny.6 mph46%29.92 "HgN/A
11:00 am48 °FScattered clouds.8 mph50%29.92 "HgN/A
10:30 am46 °FScattered clouds.6 mph62%29.92 "HgN/A
10:00 am45 °FPassing clouds.8 mph66%29.92 "HgN/A
9:30 am43 °FPassing clouds.6 mph71%29.92 "HgN/A
9:00 am39 °FPassing clouds.6 mph75%29.92 "HgN/A
8:30 am39 °FPassing clouds.6 mph75%29.92 "HgN/A
8:00 am37 °FSunny.6 mph81%29.92 "Hg10 mi
7:30 am37 °FSunny.8 mph81%29.89 "Hg10 mi
7:00 am36 °FSunny.6 mph87%29.89 "Hg10 mi
6:30 am36 °FSunny.8 mph87%29.89 "Hg10 mi
6:00 am36 °FSunny.6 mph87%29.89 "Hg10 mi
5:30 am36 °FClear.8 mph87%29.86 "Hg10 mi
5:00 am37 °FLight rain. Overcast.8 mph81%29.86 "HgN/A
4:30 am36 °FClear.8 mph87%29.86 "Hg10 mi
4:00 am36 °FClear.8 mph87%29.86 "Hg10 mi
3:30 am37 °FClear.10 mph81%29.86 "Hg10 mi
3:00 am37 °FPassing clouds.8 mph81%29.86 "HgN/A
2:30 am37 °FPassing clouds.8 mph87%29.86 "HgN/A
2:00 am37 °FClear.8 mph87%29.86 "Hg10 mi
1:30 am37 °FClear.8 mph81%29.86 "Hg10 mi
1:00 am37 °FClear.6 mph81%29.86 "Hg10 mi
12:30 am39 °FClear.8 mph75%29.86 "Hg10 mi
11:30 pm
Sun, Apr 23
39 °FClear.3 mph75%29.86 "Hg10 mi
11:00 pm39 °FClear.6 mph75%29.83 "Hg10 mi
10:30 pm41 °FClear.3 mph70%29.83 "Hg10 mi
10:00 pm43 °FPartly cloudy.6 mph66%29.83 "HgN/A
9:30 pm43 °FPassing clouds.8 mph66%29.83 "HgN/A
9:00 pm43 °FSprinkles. Partly cloudy.10 mph66%29.83 "HgN/A
8:30 pm43 °FPassing clouds.10 mph66%29.83 "HgN/A
8:00 pm45 °FPartly sunny.13 mph61%29.80 "HgN/A
7:30 pm46 °FPartly sunny.6 mph53%29.80 "HgN/A
7:00 pm46 °FSprinkles. Broken clouds.8 mph53%29.77 "HgN/A
6:30 pm45 °FSprinkles. Broken clouds.6 mph57%29.77 "Hg6 mi
6:00 pm48 °FPartly sunny.1 mph40%29.77 "HgN/A
5:30 pm50 °FPartly sunny.3 mph43%29.77 "HgN/A
5:00 pm52 °FPartly sunny.8 mph41%29.74 "HgN/A
4:30 pm50 °FPartly sunny.8 mph35%29.74 "HgN/A
4:00 pm50 °FPartly sunny.10 mph35%29.74 "HgN/A
3:00 pm50 °FPartly sunny.13 mph40%29.74 "HgN/A
2:30 pm52 °FPassing clouds.6 mph38%29.74 "HgN/A
2:00 pm50 °FPartly sunny.10 mph40%29.77 "HgN/A
Weather by CustomWeather, © 2017

See weather overviewHow to use our weather pages